Time,TemperatureF,DewpointF,PressureIn,WindDirection,WindDirectionDegrees,WindSpeedMPH,WindSpeedGustMPH,Humidity,HourlyPrecipIn,Conditions,Clouds,dailyrainin,SoftwareType,DateUTC
2013-05-19 00:00:00,80.4,67.6,30.12,East,90,7.4,7.4,65,0.00,CLR,,0.00,WeatherDisplay:10.37,2013-05-19 04:00:00,
2013-05-19 00:01:00,80.2,67.4,30.12,South,180,6.9,6.9,65,0.00,CLR,,0.00,WeatherDisplay:10.37,2013-05-19 04:01:00,
2013-05-19 00:02:00,80.2,67.4,30.12,South,180,6.9,6.9,65,0.00,CLR,,0.00,WeatherDisplay:10.37,2013-05-19 04:02:00,
2013-05-19 00:03:00,80.1,67.2,30.12,SE,135,6.9,6.9,65,0.00,CLR,,0.00,WeatherDisplay:10.37,2013-05-19 04:03:00,
2013-05-19 00:08:00,79.9,67.1,30.12,SSE,158,5.9,5.9,65,0.00,CLR,,0.00,WeatherDisplay:10.37,2013-05-19 04:08:00,
2013-05-19 00:13:00,80.1,66.8,30.12,SW,225,8.1,8.1,64,0.00,CLR,,0.00,WeatherDisplay:10.37,2013-05-19 04:13:00,
2013-05-19 00:18:00,79.9,66.6,30.12,SE,135,5.8,5.8,64,0.00,CLR,,0.00,WeatherDisplay:10.37,2013-05-19 04:18:00,
2013-05-19 00:24:00,79.9,67.1,30.12,SE,135,5.8,5.8,65,0.00,CLR,,0.00,WeatherDisplay:10.37,2013-05-19 04:24:00,
2013-05-19 00:29:00,79.9,66.6,30.12,SSE,158,5.8,5.8,64,0.00,CLR,,0.00,WeatherDisplay:10.37,2013-05-19 04:29:00,
2013-05-19 00:34:00,79.9,67.1,30.09,East,90,6.9,6.9,65,0.00,CLR,,0.00,WeatherDisplay:10.37,2013-05-19 04:34:00,
2013-05-19 00:39:00,80.1,67.2,30.09,South,180,6.9,6.9,65,0.00,CLR,,0.00,WeatherDisplay:10.37,2013-05-19 04:39:00,
2013-05-19 00:44:00,80.1,67.7,30.09,SE,135,3.8,3.8,66,0.00,CLR,,0.00,WeatherDisplay:10.37,2013-05-19 04:44:00,
2013-05-19 00:49:00,80.1,67.7,30.12,SE,135,6.2,6.2,66,0.00,CLR,,0.00,WeatherDisplay:10.37,2013-05-19 04:49:00,
2013-05-19 00:54:00,80.1,67.7,30.12,East,90,4.6,4.6,66,0.00,CLR,,0.00,WeatherDisplay:10.37,2013-05-19 04:54:00,
2013-05-19 00:59:00,80.1,67.7,30.12,SE,135,3.5,3.5,66,0.00,CLR,,0.00,WeatherDisplay:10.37,2013-05-19 04:59:00,
2013-05-19 01:04:00,80.1,67.7,30.09,East,90,5.8,5.8,66,0.00,CLR,,0.00,WeatherDisplay:10.37,2013-05-19 05:04:00,
2013-05-19 01:09:00,79.5,66.7,30.09,SE,135,6.9,6.9,65,0.00,CLR,,0.00,WeatherDisplay:10.37,2013-05-19 05:09:00,
2013-05-19 01:15:00,79.5,66.7,30.09,SE,135,6.2,6.2,65,0.00,CLR,,0.00,WeatherDisplay:10.37,2013-05-19 05:15:00,
2013-05-19 01:20:00,79.5,66.7,30.09,SE,135,5.6,5.6,65,0.00,CLR,,0.00,WeatherDisplay:10.37,2013-05-19 05:20:00,
2013-05-19 01:25:00,79.5,66.7,30.09,SE,135,8.1,8.1,65,0.00,CLR,,0.00,WeatherDisplay:10.37,2013-05-19 05:25:00,
2013-05-19 01:30:00,79.7,66.9,30.09,South,180,8.1,8.1,65,0.00,CLR,,0.00,WeatherDisplay:10.37,2013-05-19 05:30:00,
2013-05-19 01:35:00,79.8,67.4,30.06,SE,145,6.0,9.0,66,0.00,CLR,,0.00,WeatherDisplay:10.37,2013-05-19 05:35:00,
2013-05-19 01:40:00,79.7,66.9,30.06,SE,144,5.0,7.0,65,0.00,CLR,,0.00,WeatherDisplay:10.37,2013-05-19 05:40:00,
2013-05-19 01:45:00,79.5,66.7,30.06,SW,225,6.2,6.2,65,0.00,CLR,,0.00,WeatherDisplay:10.37,2013-05-19 05:45:00,
2013-05-19 01:50:00,79.5,67.2,30.09,SE,135,9.2,9.2,66,0.00,CLR,,0.00,WeatherDisplay:10.37,2013-05-19 05:50:00,
2013-05-19 01:55:00,79.3,66.5,30.09,ESE,112,6.9,6.9,65,0.00,CLR,,0.00,WeatherDisplay:10.37,2013-05-19 05:55:00,
2013-05-19 02:01:00,79.3,66.5,30.09,South,180,5.8,5.8,65,0.00,CLR,,0.00,WeatherDisplay:10.37,2013-05-19 06:01:00,
2013-05-19 02:06:00,79.3,67.0,30.09,SSE,158,8.1,8.1,66,0.00,CLR,,0.00,WeatherDisplay:10.37,2013-05-19 06:06:00,
2013-05-19 02:11:00,79.5,66.7,30.09,South,180,8.5,8.5,65,0.00,CLR,,0.00,WeatherDisplay:10.37,2013-05-19 06:11:00,
2013-05-19 02:16:00,79.5,66.7,30.09,SE,135,8.1,8.1,65,0.00,CLR,,0.00,WeatherDisplay:10.37,2013-05-19 06:16:00,
2013-05-19 02:21:00,79.5,66.7,30.09,South,180,5.8,5.8,65,0.00,CLR,,0.00,WeatherDisplay:10.37,2013-05-19 06:21:00,
2013-05-19 02:26:00,79.3,66.5,30.09,East,90,5.8,5.8,65,0.00,CLR,,0.00,WeatherDisplay:10.37,2013-05-19 06:26:00,
2013-05-19 02:31:00,79.3,66.5,30.09,ESE,112,6.9,6.9,65,0.00,CLR,,0.00,WeatherDisplay:10.37,2013-05-19 06:31:00,
2013-05-19 02:36:00,79.3,66.5,30.09,SE,135,6.9,6.9,65,0.00,CLR,,0.00,WeatherDisplay:10.37,2013-05-19 06:36:00,
2013-05-19 02:41:00,79.2,66.4,30.09,SSE,158,8.1,8.1,65,0.00,CLR,,0.00,WeatherDisplay:10.37,2013-05-19 06:41:00,
2013-05-19 02:46:00,79.2,66.4,30.09,ESE,112,5.9,5.9,65,0.00,CLR,,0.00,WeatherDisplay:10.37,2013-05-19 06:46:00,
2013-05-19 02:51:00,79.2,66.4,30.09,SE,135,5.8,5.8,65,0.00,CLR,,0.00,WeatherDisplay:10.37,2013-05-19 06:51:00,
2013-05-19 02:57:00,79.3,67.0,30.09,East,90,6.2,6.2,66,0.00,CLR,,0.00,WeatherDisplay:10.37,2013-05-19 06:57:00,
2013-05-19 03:02:00,79.5,66.7,30.06,SW,225,8.1,8.1,65,0.00,CLR,,0.00,WeatherDisplay:10.37,2013-05-19 07:02:00,
2013-05-19 03:07:00,79.2,66.4,30.06,SE,135,6.9,6.9,65,0.00,CLR,,0.00,WeatherDisplay:10.37,2013-05-19 07:07:00,
2013-05-19 03:12:00,79.0,66.2,30.06,SSE,158,5.8,5.8,65,0.00,CLR,,0.00,WeatherDisplay:10.37,2013-05-19 07:12:00,
2013-05-19 03:17:00,79.0,66.2,30.06,East,90,5.8,5.8,65,0.00,CLR,,0.00,WeatherDisplay:10.37,2013-05-19 07:17:00,
2013-05-19 03:22:00,78.8,66.0,30.06,ESE,112,4.6,4.6,65,0.00,CLR,,0.00,WeatherDisplay:10.37,2013-05-19 07:22:00,
2013-05-19 03:28:00,79.0,66.2,30.06,NE,45,5.8,5.8,65,0.00,CLR,,0.00,WeatherDisplay:10.37,2013-05-19 07:28:00,
2013-05-19 03:33:00,78.8,66.0,30.06,SW,225,6.9,6.9,65,0.00,CLR,,0.00,WeatherDisplay:10.37,2013-05-19 07:33:00,
2013-05-19 03:38:00,78.8,66.0,30.06,SE,135,5.8,5.8,65,0.00,CLR,,0.00,WeatherDisplay:10.37,2013-05-19 07:38:00,
2013-05-19 03:43:00,78.8,66.0,30.06,SE,135,5.8,5.8,65,0.00,CLR,,0.00,WeatherDisplay:10.37,2013-05-19 07:43:00,
2013-05-19 03:48:00,79.0,66.2,30.06,SE,135,8.1,8.1,65,0.00,CLR,,0.00,WeatherDisplay:10.37,2013-05-19 07:48:00,
2013-05-19 03:53:00,79.0,66.2,30.06,WSW,248,6.9,6.9,65,0.00,CLR,,0.00,WeatherDisplay:10.37,2013-05-19 07:53:00,
2013-05-19 03:58:00,78.8,66.0,30.06,SSE,158,5.8,5.8,65,0.00,CLR,,0.00,WeatherDisplay:10.37,2013-05-19 07:58:00,
2013-05-19 04:03:00,78.6,66.3,30.06,ESE,112,6.0,6.0,66,0.00,CLR,,0.00,WeatherDisplay:10.37,2013-05-19 08:03:00,
2013-05-19 04:08:00,78.6,66.3,30.06,South,180,6.0,6.0,66,0.00,CLR,,0.00,WeatherDisplay:10.37,2013-05-19 08:08:00,
2013-05-19 04:13:00,78.6,66.3,30.06,South,180,5.8,5.8,66,0.00,CLR,,0.00,WeatherDisplay:10.37,2013-05-19 08:13:00,
2013-05-19 04:18:00,78.6,66.3,30.06,ENE,68,5.8,5.8,66,0.00,CLR,,0.00,WeatherDisplay:10.37,2013-05-19 08:18:00,
2013-05-19 04:24:00,78.4,66.1,30.06,SW,225,6.9,6.9,66,0.00,CLR,,0.00,WeatherDisplay:10.37,2013-05-19 08:24:00,
2013-05-19 04:29:00,78.4,66.1,30.06,SE,135,5.9,5.9,66,0.00,CLR,,0.00,WeatherDisplay:10.37,2013-05-19 08:29:00,
2013-05-19 04:34:00,78.4,66.1,30.06,East,90,6.9,6.9,66,0.00,CLR,,0.00,WeatherDisplay:10.37,2013-05-19 08:34:00,
2013-05-19 04:39:00,78.6,66.7,30.06,South,180,4.6,4.6,67,0.00,CLR,,0.00,WeatherDisplay:10.37,2013-05-19 08:39:00,
2013-05-19 04:44:00,78.8,66.5,30.06,SSE,158,6.4,6.4,66,0.00,CLR,,0.00,WeatherDisplay:10.37,2013-05-19 08:44:00,
2013-05-19 04:49:00,78.6,66.7,30.06,SE,135,2.9,3.1,67,0.00,CLR,,0.00,WeatherDisplay:10.37,2013-05-19 08:49:00,
2013-05-19 04:55:00,78.4,66.1,30.06,SSE,155,3.0,9.0,66,0.00,CLR,,0.00,WeatherDisplay:10.37,2013-05-19 08:55:00,
2013-05-19 05:00:00,78.4,66.1,30.06,SSE,158,5.8,5.8,66,0.00,CLR,,0.00,WeatherDisplay:10.37,2013-05-19 09:00:00,
2013-05-19 05:05:00,78.3,66.0,30.09,South,180,6.9,6.9,66,0.00,CLR,,0.00,WeatherDisplay:10.37,2013-05-19 09:05:00,
2013-05-19 05:10:00,78.3,66.0,30.09,ENE,68,4.6,4.6,66,0.00,CLR,,0.00,WeatherDisplay:10.37,2013-05-19 09:10:00,
2013-05-19 05:15:00,78.4,66.1,30.09,SE,135,4.6,4.6,66,0.00,CLR,,0.00,WeatherDisplay:10.37,2013-05-19 09:15:00,
2013-05-19 05:20:00,78.3,66.0,30.06,SE,146,5.0,8.0,66,0.00,CLR,,0.00,WeatherDisplay:10.37,2013-05-19 09:20:00,
2013-05-19 05:25:00,78.3,66.4,30.06,South,180,3.6,3.6,67,0.00,CLR,,0.00,WeatherDisplay:10.37,2013-05-19 09:25:00,
2013-05-19 05:30:00,78.3,66.0,30.06,SSE,158,6.9,6.9,66,0.00,CLR,,0.00,WeatherDisplay:10.37,2013-05-19 09:30:00,
2013-05-19 05:35:00,78.4,66.6,30.09,SE,135,4.0,4.0,67,0.00,CLR,,0.00,WeatherDisplay:10.37,2013-05-19 09:35:00,
2013-05-19 05:41:00,78.6,66.7,30.09,West,270,4.6,4.6,67,0.00,CLR,,0.00,WeatherDisplay:10.37,2013-05-19 09:41:00,
2013-05-19 05:46:00,78.4,66.6,30.09,East,90,5.8,5.8,67,0.00,CLR,,0.00,WeatherDisplay:10.37,2013-05-19 09:46:00,
2013-05-19 05:51:00,78.3,66.4,30.09,East,90,6.9,6.9,67,0.00,CLR,,0.00,WeatherDisplay:10.37,2013-05-19 09:51:00,
2013-05-19 05:56:00,78.3,66.4,30.09,SW,225,5.8,5.8,67,0.00,CLR,,0.00,WeatherDisplay:10.37,2013-05-19 09:56:00,
2013-05-19 06:01:00,78.3,66.4,30.09,SW,225,4.6,4.6,67,0.00,CLR,,0.00,WeatherDisplay:10.37,2013-05-19 10:01:00,
2013-05-19 06:06:00,78.3,66.4,30.09,East,90,5.8,5.8,67,0.00,CLR,,0.00,WeatherDisplay:10.37,2013-05-19 10:06:00,
2013-05-19 06:11:00,78.1,66.2,30.09,SE,135,4.6,4.6,67,0.00,CLR,,0.00,WeatherDisplay:10.37,2013-05-19 10:11:00,
2013-05-19 06:16:00,78.1,65.8,30.09,SE,135,4.6,4.6,66,0.00,CLR,,0.00,WeatherDisplay:10.37,2013-05-19 10:16:00,
2013-05-19 06:21:00,78.1,66.2,30.09,ESE,112,5.8,5.8,67,0.00,CLR,,0.00,WeatherDisplay:10.37,2013-05-19 10:21:00,
2013-05-19 06:26:00,78.1,66.2,30.09,North,0,9.0,9.0,67,0.00,CLR,,0.00,WeatherDisplay:10.37,2013-05-19 10:26:00,
2013-05-19 06:32:00,78.1,66.7,30.09,SE,135,6.9,6.9,68,0.00,CLR,,0.00,WeatherDisplay:10.37,2013-05-19 10:32:00,
2013-05-19 06:37:00,78.3,66.8,30.09,West,270,6.9,6.9,68,0.00,CLR,,0.00,WeatherDisplay:10.37,2013-05-19 10:37:00,
2013-05-19 06:42:00,78.4,66.6,30.09,East,90,5.8,5.8,67,0.00,CLR,,0.00,WeatherDisplay:10.37,2013-05-19 10:42:00,
2013-05-19 06:47:00,78.3,66.4,30.09,SE,135,6.2,6.2,67,0.00,CLR,,0.00,WeatherDisplay:10.37,2013-05-19 10:47:00,
2013-05-19 06:52:00,78.1,66.2,30.09,SSE,158,8.1,8.1,67,0.00,CLR,,0.00,WeatherDisplay:10.37,2013-05-19 10:52:00,
2013-05-19 06:57:00,78.1,66.2,30.09,East,90,4.3,4.3,67,0.00,CLR,,0.00,WeatherDisplay:10.37,2013-05-19 10:57:00,
2013-05-19 07:02:00,78.1,66.2,30.06,SSW,202,9.2,9.2,67,0.00,CLR,,0.00,WeatherDisplay:10.37,2013-05-19 11:02:00,
2013-05-19 07:07:00,78.3,66.4,30.06,SE,135,6.9,6.9,67,0.00,CLR,,0.00,WeatherDisplay:10.37,2013-05-19 11:07:00,
2013-05-19 07:13:00,78.1,66.2,30.06,SE,135,6.9,6.9,67,0.00,CLR,,0.00,WeatherDisplay:10.37,2013-05-19 11:13:00,
2013-05-19 07:18:00,78.3,66.4,30.09,West,270,8.1,8.1,67,0.00,CLR,,0.00,WeatherDisplay:10.37,2013-05-19 11:18:00,
2013-05-19 07:23:00,78.3,66.4,30.09,SE,135,6.0,6.0,67,0.00,CLR,,0.00,WeatherDisplay:10.37,2013-05-19 11:23:00,
2013-05-19 07:28:00,78.3,66.4,30.09,ESE,112,4.6,4.6,67,0.00,CLR,,0.00,WeatherDisplay:10.37,2013-05-19 11:28:00,
2013-05-19 07:33:00,78.6,66.7,30.06,ESE,112,4.6,4.6,67,0.00,CLR,,0.00,WeatherDisplay:10.37,2013-05-19 11:33:00,
2013-05-19 07:38:00,78.8,66.5,30.06,SSE,158,5.8,5.8,66,0.00,CLR,,0.00,WeatherDisplay:10.37,2013-05-19 11:38:00,
2013-05-19 07:43:00,79.0,66.6,30.06,East,90,4.6,4.6,66,0.00,CLR,,0.00,WeatherDisplay:10.37,2013-05-19 11:43:00,
2013-05-19 07:49:00,79.0,66.6,30.06,East,90,4.6,4.6,66,0.00,CLR,,0.00,WeatherDisplay:10.37,2013-05-19 11:49:00,
2013-05-19 07:54:00,78.6,66.3,30.06,SE,135,3.6,3.6,66,0.00,CLR,,0.00,WeatherDisplay:10.37,2013-05-19 11:54:00,
2013-05-19 07:59:00,78.6,66.3,30.06,South,180,6.9,6.9,66,0.00,CLR,,0.00,WeatherDisplay:10.37,2013-05-19 11:59:00,
2013-05-19 08:04:00,78.8,66.5,30.09,North,0,4.6,4.6,66,0.00,CLR,,0.00,WeatherDisplay:10.37,2013-05-19 12:04:00,
2013-05-19 08:09:00,78.8,66.5,30.09,East,90,6.9,6.9,66,0.00,CLR,,0.00,WeatherDisplay:10.37,2013-05-19 12:09:00,
2013-05-19 08:14:00,79.0,66.6,30.09,East,90,5.8,5.8,66,0.00,CLR,,0.00,WeatherDisplay:10.37,2013-05-19 12:14:00,
2013-05-19 08:19:00,79.2,66.8,30.12,SE,135,6.9,6.9,66,0.00,CLR,,0.00,WeatherDisplay:10.37,2013-05-19 12:19:00,
2013-05-19 08:24:00,79.3,67.0,30.12,ESE,112,6.7,6.7,66,0.00,CLR,,0.00,WeatherDisplay:10.37,2013-05-19 12:24:00,
2013-05-19 08:29:00,79.3,67.0,30.12,East,90,5.8,5.8,66,0.00,CLR,,0.00,WeatherDisplay:10.37,2013-05-19 12:29:00,
2013-05-19 08:34:00,79.3,67.0,30.12,East,90,4.6,4.6,66,0.00,CLR,,0.00,WeatherDisplay:10.37,2013-05-19 12:34:00,
2013-05-19 08:39:00,79.5,67.2,30.12,East,90,5.8,5.8,66,0.00,CLR,,0.00,WeatherDisplay:10.37,2013-05-19 12:39:00,
2013-05-19 08:44:00,79.9,67.5,30.12,North,0,5.8,5.8,66,0.00,CLR,,0.00,WeatherDisplay:10.37,2013-05-19 12:44:00,
2013-05-19 08:50:00,80.1,67.2,30.12,East,90,8.1,8.1,65,0.00,CLR,,0.00,WeatherDisplay:10.37,2013-05-19 12:50:00,
2013-05-19 08:55:00,80.4,67.1,30.12,SSE,150,5.0,7.0,64,0.00,CLR,,0.00,WeatherDisplay:10.37,2013-05-19 12:55:00,
2013-05-19 09:00:00,80.4,67.6,30.12,SE,135,5.8,5.8,65,0.00,CLR,,0.00,WeatherDisplay:10.37,2013-05-19 13:00:00,
2013-05-19 09:05:00,80.4,67.1,30.15,SSE,154,2.0,6.0,64,0.00,CLR,,0.00,WeatherDisplay:10.37,2013-05-19 13:05:00,
2013-05-19 09:10:00,80.4,67.6,30.15,SE,135,5.8,5.8,65,0.00,CLR,,0.00,WeatherDisplay:10.37,2013-05-19 13:10:00,
2013-05-19 09:15:00,80.6,67.3,30.15,ESE,112,4.6,4.6,64,0.00,CLR,,0.00,WeatherDisplay:10.37,2013-05-19 13:15:00,
2013-05-19 09:20:00,81.0,67.6,30.15,SE,135,4.6,4.6,64,0.00,CLR,,0.00,WeatherDisplay:10.37,2013-05-19 13:20:00,
2013-05-19 09:26:00,81.0,67.6,30.15,East,90,5.9,5.9,64,0.00,CLR,,0.00,WeatherDisplay:10.37,2013-05-19 13:26:00,
2013-05-19 09:31:00,81.1,67.8,30.15,ESE,117,2.0,6.0,64,0.00,CLR,,0.00,WeatherDisplay:10.37,2013-05-19 13:31:00,
2013-05-19 09:36:00,81.3,68.0,30.15,SSE,158,5.8,5.8,64,0.00,CLR,,0.00,WeatherDisplay:10.37,2013-05-19 13:36:00,
2013-05-19 09:41:00,81.3,67.5,30.15,SE,135,5.4,5.4,63,0.00,CLR,,0.00,WeatherDisplay:10.37,2013-05-19 13:41:00,
2013-05-19 09:46:00,81.5,68.1,30.15,East,90,5.6,5.6,64,0.00,CLR,,0.00,WeatherDisplay:10.37,2013-05-19 13:46:00,
2013-05-19 09:52:00,81.5,67.7,30.15,South,180,4.6,4.6,63,0.00,CLR,,0.00,WeatherDisplay:10.37,2013-05-19 13:52:00,
2013-05-19 09:57:00,81.3,68.0,30.15,East,90,4.7,4.7,64,0.00,CLR,,0.00,WeatherDisplay:10.37,2013-05-19 13:57:00,
2013-05-19 10:02:00,81.5,67.7,30.15,East,90,8.1,8.1,63,0.00,CLR,,0.00,WeatherDisplay:10.37,2013-05-19 14:02:00,
2013-05-19 10:07:00,81.5,67.2,30.15,NE,45,4.6,4.6,62,0.00,CLR,,0.00,WeatherDisplay:10.37,2013-05-19 14:07:00,
2013-05-19 10:12:00,81.9,67.6,30.15,East,90,6.9,6.9,62,0.00,CLR,,0.00,WeatherDisplay:10.37,2013-05-19 14:12:00,
2013-05-19 10:17:00,81.9,67.6,30.15,SW,225,3.5,3.5,62,0.00,CLR,,0.00,WeatherDisplay:10.37,2013-05-19 14:17:00,
2013-05-19 10:22:00,82.2,67.9,30.15,East,90,4.6,4.6,62,0.00,CLR,,0.00,WeatherDisplay:10.37,2013-05-19 14:22:00,
2013-05-19 10:27:00,82.4,67.6,30.15,East,90,5.8,5.8,61,0.00,CLR,,0.00,WeatherDisplay:10.37,2013-05-19 14:27:00,
2013-05-19 10:32:00,82.6,67.8,30.15,NE,45,4.9,4.9,61,0.00,CLR,,0.00,WeatherDisplay:10.37,2013-05-19 14:32:00,
2013-05-19 10:37:00,82.9,67.6,30.15,SE,135,6.9,6.9,60,0.00,CLR,,0.00,WeatherDisplay:10.37,2013-05-19 14:37:00,
2013-05-19 10:42:00,82.9,67.6,30.15,SSE,158,7.4,7.4,60,0.00,CLR,,0.00,WeatherDisplay:10.37,2013-05-19 14:42:00,
2013-05-19 10:47:00,82.8,67.5,30.15,SE,135,5.8,5.8,60,0.00,CLR,,0.00,WeatherDisplay:10.37,2013-05-19 14:47:00,
2013-05-19 10:52:00,82.9,67.6,30.15,North,0,6.9,6.9,60,0.00,CLR,,0.00,WeatherDisplay:10.37,2013-05-19 14:52:00,
2013-05-19 10:57:00,83.1,67.8,30.15,SW,225,8.1,8.1,60,0.00,CLR,,0.00,WeatherDisplay:10.37,2013-05-19 14:57:00,
2013-05-19 11:02:00,83.1,67.8,30.15,East,90,5.8,5.8,60,0.00,CLR,,0.00,WeatherDisplay:10.37,2013-05-19 15:02:00,
2013-05-19 11:07:00,83.1,67.8,30.15,East,90,5.8,5.8,60,0.00,CLR,,0.00,WeatherDisplay:10.37,2013-05-19 15:07:00,
2013-05-19 11:13:00,83.3,68.0,30.15,South,180,4.6,4.6,60,0.00,CLR,,0.00,WeatherDisplay:10.37,2013-05-19 15:13:00,
2013-05-19 11:18:00,83.3,68.4,30.15,ESE,112,3.5,3.5,61,0.00,CLR,,0.00,WeatherDisplay:10.37,2013-05-19 15:18:00,
2013-05-19 11:23:00,83.7,68.8,30.15,West,270,4.6,4.6,61,0.00,CLR,,0.00,WeatherDisplay:10.37,2013-05-19 15:23:00,
2013-05-19 11:28:00,84.4,69.0,30.15,SE,135,5.8,5.8,60,0.00,CLR,,0.00,WeatherDisplay:10.37,2013-05-19 15:28:00,
2013-05-19 11:33:00,84.4,68.5,30.15,ENE,68,3.5,3.5,59,0.00,CLR,,0.00,WeatherDisplay:10.37,2013-05-19 15:33:00,
2013-05-19 11:38:00,84.6,68.7,30.15,NE,45,4.3,4.3,59,0.00,CLR,,0.00,WeatherDisplay:10.37,2013-05-19 15:38:00,
2013-05-19 11:43:00,84.4,68.0,30.15,East,90,6.9,6.9,58,0.00,CLR,,0.00,WeatherDisplay:10.37,2013-05-19 15:43:00,
2013-05-19 11:48:00,84.7,68.3,30.15,East,90,5.8,5.8,58,0.02,RA,,0.02,WeatherDisplay:10.37,2013-05-19 15:48:00,
2013-05-19 11:53:00,84.7,68.8,30.15,South,180,4.6,4.6,59,0.02,RA,,0.02,WeatherDisplay:10.37,2013-05-19 15:53:00,
2013-05-19 11:58:00,85.1,68.7,30.15,SE,135,4.6,4.6,58,0.02,CLR,,0.04,WeatherDisplay:10.37,2013-05-19 15:58:00,
2013-05-19 12:03:00,84.9,68.0,30.12,East,90,5.8,5.8,57,0.04,RA,,0.04,WeatherDisplay:10.37,2013-05-19 16:03:00,
2013-05-19 12:09:00,85.1,67.6,30.12,West,270,3.5,3.5,56,0.04,,,0.04,WeatherDisplay:10.37,2013-05-19 16:09:00,
2013-05-19 12:14:00,85.5,66.9,30.12,SSE,158,3.6,3.6,54,0.04,CLR,,0.04,WeatherDisplay:10.37,2013-05-19 16:14:00,
2013-05-19 12:19:00,85.5,66.9,30.15,SE,135,3.5,3.5,54,0.04,CLR,,0.04,WeatherDisplay:10.37,2013-05-19 16:19:00,
2013-05-19 12:24:00,85.6,67.6,30.15,ENE,68,8.1,8.1,55,0.04,CLR,,0.04,WeatherDisplay:10.37,2013-05-19 16:24:00,
2013-05-19 12:29:00,85.8,67.8,30.15,NE,45,2.3,2.3,55,0.04,CLR,,0.04,WeatherDisplay:10.37,2013-05-19 16:29:00,
2013-05-19 12:34:00,86.2,68.1,30.15,SSE,158,5.8,5.8,55,0.04,CLR,,0.04,WeatherDisplay:10.37,2013-05-19 16:34:00,
2013-05-19 12:39:00,86.2,67.6,30.15,NW,315,5.4,5.4,54,0.04,CLR,,0.04,WeatherDisplay:10.37,2013-05-19 16:39:00,
2013-05-19 12:44:00,86.4,67.2,30.15,East,90,4.6,4.6,53,0.04,CLR,,0.04,WeatherDisplay:10.37,2013-05-19 16:44:00,
2013-05-19 12:49:00,86.7,68.1,30.15,ESE,112,3.5,3.5,54,0.02,CLR,,0.04,WeatherDisplay:10.37,2013-05-19 16:49:00,
2013-05-19 12:54:00,86.4,67.2,30.15,NE,45,5.8,5.8,53,0.02,CLR,,0.04,WeatherDisplay:10.37,2013-05-19 16:54:00,
2013-05-19 13:00:00,86.7,68.6,30.15,North,0,5.8,5.8,55,0.00,CLR,,0.04,WeatherDisplay:10.37,2013-05-19 17:00:00,
2013-05-19 13:05:00,86.5,67.9,30.12,NE,52,2.0,7.0,54,0.00,RA,,0.04,WeatherDisplay:10.37,2013-05-19 17:05:00,
2013-05-19 13:10:00,87.1,68.4,30.12,ESE,112,6.2,6.2,54,0.00,CLR,,0.04,WeatherDisplay:10.37,2013-05-19 17:10:00,
2013-05-19 13:15:00,87.3,68.0,30.12,East,90,5.8,5.8,53,0.00,CLR,,0.04,WeatherDisplay:10.37,2013-05-19 17:15:00,
2013-05-19 13:20:00,87.4,68.8,30.09,South,180,6.9,6.9,54,0.00,CLR,,0.04,WeatherDisplay:10.37,2013-05-19 17:20:00,
2013-05-19 13:25:00,87.1,67.3,30.09,NE,45,5.8,5.8,52,0.00,CLR,,0.04,WeatherDisplay:10.37,2013-05-19 17:25:00,
2013-05-19 13:30:00,87.6,68.4,30.12,ENE,68,5.8,5.8,53,0.00,CLR,,0.04,WeatherDisplay:10.37,2013-05-19 17:30:00,
2013-05-19 13:36:00,87.6,68.4,30.12,ESE,112,5.8,5.8,53,0.00,CLR,,0.04,WeatherDisplay:10.37,2013-05-19 17:36:00,
2013-05-19 13:41:00,87.3,68.0,30.12,East,90,4.6,4.6,53,0.00,CLR,,0.04,WeatherDisplay:10.37,2013-05-19 17:41:00,
2013-05-19 13:46:00,87.4,68.8,30.09,East,90,5.8,5.8,54,0.00,CLR,,0.04,WeatherDisplay:10.37,2013-05-19 17:46:00,
2013-05-19 13:51:00,87.3,68.6,30.09,SSE,158,5.6,5.6,54,0.00,CLR,,0.04,WeatherDisplay:10.37,2013-05-19 17:51:00,
2013-05-19 13:56:00,87.8,68.5,30.09,NE,45,5.9,5.9,53,0.00,CLR,,0.04,WeatherDisplay:10.37,2013-05-19 17:56:00,
2013-05-19 14:01:00,88.2,68.9,30.09,South,180,5.8,5.8,53,0.00,CLR,,0.04,WeatherDisplay:10.37,2013-05-19 18:01:00,
2013-05-19 14:06:00,88.2,68.9,30.09,East,90,5.4,5.4,53,0.00,CLR,,0.04,WeatherDisplay:10.37,2013-05-19 18:06:00,
2013-05-19 14:12:00,88.2,68.9,30.09,SE,135,6.9,6.9,53,0.00,CLR,,0.04,WeatherDisplay:10.37,2013-05-19 18:12:00,
2013-05-19 14:17:00,88.2,68.9,30.09,NE,45,3.5,3.5,53,0.00,CLR,,0.04,WeatherDisplay:10.37,2013-05-19 18:17:00,
2013-05-19 14:22:00,88.2,68.3,30.09,NE,45,6.0,6.0,52,0.00,CLR,,0.04,WeatherDisplay:10.37,2013-05-19 18:22:00,
2013-05-19 14:27:00,88.2,68.3,30.09,ESE,112,8.1,8.1,52,0.00,CLR,,0.04,WeatherDisplay:10.37,2013-05-19 18:27:00,
2013-05-19 14:32:00,88.5,69.2,30.09,East,90,4.6,4.6,53,0.00,CLR,,0.04,WeatherDisplay:10.37,2013-05-19 18:32:00,
2013-05-19 14:37:00,88.5,69.2,30.09,West,270,6.9,6.9,53,0.00,CLR,,0.04,WeatherDisplay:10.37,2013-05-19 18:37:00,
2013-05-19 14:42:00,88.5,69.2,30.09,SE,135,7.1,7.1,53,0.00,CLR,,0.04,WeatherDisplay:10.37,2013-05-19 18:42:00,
2013-05-19 14:47:00,88.5,69.2,30.09,West,270,5.8,5.8,53,0.00,CLR,,0.04,WeatherDisplay:10.37,2013-05-19 18:47:00,
2013-05-19 14:52:00,88.5,69.8,30.09,SE,135,5.8,5.8,54,0.00,CLR,,0.04,WeatherDisplay:10.37,2013-05-19 18:52:00,
2013-05-19 14:57:00,88.9,70.6,30.09,East,90,6.9,6.9,55,0.00,CLR,,0.04,WeatherDisplay:10.37,2013-05-19 18:57:00,
2013-05-19 15:03:00,89.1,70.3,30.09,SSE,158,6.9,6.9,54,0.00,CLR,,0.04,WeatherDisplay:10.37,2013-05-19 19:03:00,
2013-05-19 15:08:00,89.1,70.3,30.09,ESE,112,4.6,4.6,54,0.00,CLR,,0.04,WeatherDisplay:10.37,2013-05-19 19:08:00,
2013-05-19 15:13:00,89.4,70.0,30.09,East,90,5.8,5.8,53,0.00,CLR,,0.04,WeatherDisplay:10.37,2013-05-19 19:13:00,
2013-05-19 15:18:00,89.6,70.2,30.06,ESE,112,7.4,7.4,53,0.00,CLR,,0.04,WeatherDisplay:10.37,2013-05-19 19:18:00,
2013-05-19 15:23:00,89.4,70.0,30.06,SE,135,5.8,5.8,53,0.00,CLR,,0.04,WeatherDisplay:10.37,2013-05-19 19:23:00,
2013-05-19 15:28:00,89.6,69.6,30.06,East,90,8.1,8.1,52,0.00,CLR,,0.04,WeatherDisplay:10.37,2013-05-19 19:28:00,
2013-05-19 15:33:00,90.1,69.6,30.06,South,180,6.9,6.9,51,0.00,CLR,,0.04,WeatherDisplay:10.37,2013-05-19 19:33:00,
2013-05-19 15:38:00,90.1,70.1,30.06,SE,135,6.2,6.2,52,0.00,CLR,,0.04,WeatherDisplay:10.37,2013-05-19 19:38:00,
2013-05-19 15:43:00,90.9,70.8,30.06,East,90,5.8,5.8,52,0.00,CLR,,0.04,WeatherDisplay:10.37,2013-05-19 19:43:00,
2013-05-19 15:48:00,90.3,69.2,30.06,ESE,112,5.8,5.8,50,0.00,CLR,,0.04,WeatherDisplay:10.37,2013-05-19 19:48:00,
2013-05-19 15:53:00,89.2,68.2,30.06,NE,45,5.4,5.4,50,0.00,CLR,,0.04,WeatherDisplay:10.37,2013-05-19 19:53:00,
2013-05-19 15:59:00,88.5,66.9,30.06,NE,45,4.6,4.6,49,0.00,CLR,,0.04,WeatherDisplay:10.37,2013-05-19 19:59:00,
2013-05-19 16:04:00,89.4,68.3,30.06,SE,135,8.1,8.1,50,0.00,CLR,,0.04,WeatherDisplay:10.37,2013-05-19 20:04:00,
2013-05-19 16:09:00,89.4,68.3,30.06,ENE,68,5.9,5.9,50,0.00,CLR,,0.04,WeatherDisplay:10.37,2013-05-19 20:09:00,
2013-05-19 16:14:00,89.2,67.0,30.06,NE,45,5.8,5.8,48,0.00,CLR,,0.04,WeatherDisplay:10.37,2013-05-19 20:14:00,
2013-05-19 16:19:00,88.5,66.9,30.06,East,90,5.8,5.8,49,0.00,CLR,,0.04,WeatherDisplay:10.37,2013-05-19 20:19:00,
2013-05-19 16:24:00,88.7,67.1,30.06,East,90,5.8,5.8,49,0.00,CLR,,0.04,WeatherDisplay:10.37,2013-05-19 20:24:00,
2013-05-19 16:29:00,88.2,67.2,30.06,SE,135,8.1,8.1,50,0.00,CLR,,0.04,WeatherDisplay:10.37,2013-05-19 20:29:00,
2013-05-19 16:34:00,87.1,66.2,30.06,East,90,5.8,5.8,50,0.00,CLR,,0.04,WeatherDisplay:10.37,2013-05-19 20:34:00,
2013-05-19 16:39:00,87.4,67.7,30.06,SE,135,6.0,6.0,52,0.00,CLR,,0.04,WeatherDisplay:10.37,2013-05-19 20:39:00,
2013-05-19 16:44:00,87.1,66.8,30.06,North,0,5.8,5.8,51,0.00,CLR,,0.04,WeatherDisplay:10.37,2013-05-19 20:44:00,
2013-05-19 16:49:00,86.9,66.6,30.06,East,90,5.8,5.8,51,0.00,CLR,,0.04,WeatherDisplay:10.37,2013-05-19 20:49:00,
2013-05-19 16:54:00,86.5,66.3,30.06,East,90,6.9,6.9,51,0.00,CLR,,0.04,WeatherDisplay:10.37,2013-05-19 20:54:00,
2013-05-19 16:59:00,86.5,65.7,30.06,East,90,6.0,6.0,50,0.00,CLR,,0.04,WeatherDisplay:10.37,2013-05-19 20:59:00,
2013-05-19 17:04:00,86.5,66.3,30.06,ENE,68,8.1,8.1,51,0.00,CLR,,0.04,WeatherDisplay:10.37,2013-05-19 21:04:00,
2013-05-19 17:09:00,86.4,65.5,30.06,SSE,158,6.4,6.4,50,0.00,CLR,,0.04,WeatherDisplay:10.37,2013-05-19 21:09:00,
2013-05-19 17:15:00,85.8,65.6,30.06,North,0,5.8,5.8,51,0.00,CLR,,0.04,WeatherDisplay:10.37,2013-05-19 21:15:00,
2013-05-19 17:20:00,85.8,65.6,30.06,NE,45,8.1,8.1,51,0.00,CLR,,0.04,WeatherDisplay:10.37,2013-05-19 21:20:00,
2013-05-19 17:25:00,85.8,66.2,30.06,ENE,68,5.8,5.8,52,0.00,CLR,,0.04,WeatherDisplay:10.37,2013-05-19 21:25:00,
2013-05-19 17:30:00,86.2,65.9,30.06,NE,45,4.6,4.6,51,0.00,CLR,,0.04,WeatherDisplay:10.37,2013-05-19 21:30:00,
2013-05-19 17:35:00,86.9,66.6,30.06,East,90,10.4,10.4,51,0.00,CLR,,0.04,WeatherDisplay:10.37,2013-05-19 21:35:00,
2013-05-19 17:40:00,87.4,67.1,30.06,East,90,6.9,6.9,51,0.00,CLR,,0.04,WeatherDisplay:10.37,2013-05-19 21:40:00,
2013-05-19 17:45:00,87.4,66.5,30.06,East,90,5.8,5.8,50,0.00,CLR,,0.04,WeatherDisplay:10.37,2013-05-19 21:45:00,
2013-05-19 17:50:00,87.4,65.3,30.06,NE,45,8.1,8.1,48,0.00,CLR,,0.04,WeatherDisplay:10.37,2013-05-19 21:50:00,
2013-05-19 17:55:00,87.6,65.5,30.06,NE,45,9.2,9.2,48,0.00,CLR,,0.04,WeatherDisplay:10.37,2013-05-19 21:55:00,
2013-05-19 18:00:00,87.6,65.5,30.06,ENE,78,3.0,9.0,48,0.00,RA,,0.04,WeatherDisplay:10.37,2013-05-19 22:00:00,
2013-05-19 18:05:00,87.8,65.7,30.03,ENE,68,5.9,5.9,48,0.00,CLR,,0.04,WeatherDisplay:10.37,2013-05-19 22:05:00,
2013-05-19 18:11:00,88.0,65.8,30.03,NE,45,9.2,9.2,48,0.00,CLR,,0.04,WeatherDisplay:10.37,2013-05-19 22:11:00,
2013-05-19 18:16:00,87.4,65.3,30.03,East,90,6.9,6.9,48,0.00,CLR,,0.04,WeatherDisplay:10.37,2013-05-19 22:16:00,
2013-05-19 18:21:00,87.4,65.3,30.03,SE,135,7.6,7.6,48,0.00,CLR,,0.04,WeatherDisplay:10.37,2013-05-19 22:21:00,
2013-05-19 18:26:00,87.4,65.3,30.03,East,90,5.8,5.8,48,0.00,CLR,,0.04,WeatherDisplay:10.37,2013-05-19 22:26:00,
2013-05-19 18:32:00,87.4,65.3,30.03,ENE,68,5.9,5.9,48,0.00,CLR,,0.04,WeatherDisplay:10.37,2013-05-19 22:32:00,
2013-05-19 18:37:00,86.9,64.2,30.03,SE,135,10.2,10.2,47,0.00,CLR,,0.04,WeatherDisplay:10.37,2013-05-19 22:37:00,
2013-05-19 18:42:00,86.9,64.2,30.03,NNE,22,9.2,9.2,47,0.00,CLR,,0.04,WeatherDisplay:10.37,2013-05-19 22:42:00,
2013-05-19 18:47:00,85.5,63.5,30.03,ENE,68,5.8,5.8,48,0.00,CLR,,0.04,WeatherDisplay:10.37,2013-05-19 22:47:00,
2013-05-19 18:52:00,85.5,63.5,30.03,NNE,22,8.1,8.1,48,0.00,CLR,,0.04,WeatherDisplay:10.37,2013-05-19 22:52:00,
2013-05-19 18:57:00,85.6,63.7,30.03,East,90,8.1,8.1,48,0.00,CLR,,0.04,WeatherDisplay:10.37,2013-05-19 22:57:00,
2013-05-19 19:02:00,84.4,63.1,30.06,SE,135,5.8,5.8,49,0.00,CLR,,0.04,WeatherDisplay:10.37,2013-05-19 23:02:00,
2013-05-19 19:07:00,84.2,63.0,30.06,NE,45,5.8,5.8,49,0.00,CLR,,0.04,WeatherDisplay:10.37,2013-05-19 23:07:00,
2013-05-19 19:13:00,84.0,62.8,30.06,East,90,5.8,5.8,49,0.00,CLR,,0.04,WeatherDisplay:10.37,2013-05-19 23:13:00,
2013-05-19 19:18:00,83.7,63.6,30.03,East,90,5.8,5.8,51,0.00,CLR,,0.04,WeatherDisplay:10.37,2013-05-19 23:18:00,
2013-05-19 19:23:00,83.5,63.4,30.03,NE,45,8.1,8.1,51,0.00,CLR,,0.04,WeatherDisplay:10.37,2013-05-19 23:23:00,
2013-05-19 19:28:00,84.0,63.9,30.03,NE,45,4.9,4.9,51,0.00,CLR,,0.04,WeatherDisplay:10.37,2013-05-19 23:28:00,
2013-05-19 19:33:00,83.8,63.8,30.06,ENE,68,5.8,5.8,51,0.00,CLR,,0.04,WeatherDisplay:10.37,2013-05-19 23:33:00,
2013-05-19 19:38:00,83.7,63.6,30.06,NE,45,5.8,5.8,51,0.00,CLR,,0.04,WeatherDisplay:10.37,2013-05-19 23:38:00,
2013-05-19 19:43:00,83.3,63.8,30.06,ENE,68,2.3,4.3,52,0.00,CLR,,0.04,WeatherDisplay:10.37,2013-05-19 23:43:00,
2013-05-19 19:48:00,83.1,64.8,30.06,South,180,4.6,4.6,54,0.00,CLR,,0.04,WeatherDisplay:10.37,2013-05-19 23:48:00,
2013-05-19 19:53:00,82.8,64.4,30.06,ENE,68,5.8,5.8,54,0.00,CLR,,0.04,WeatherDisplay:10.37,2013-05-19 23:53:00,
2013-05-19 19:58:00,82.6,64.3,30.06,East,90,5.8,5.8,54,0.00,CLR,,0.04,WeatherDisplay:10.37,2013-05-19 23:58:00,
2013-05-19 20:04:00,82.6,64.3,30.06,NE,45,5.9,5.9,54,0.00,CLR,,0.04,WeatherDisplay:10.37,2013-05-20 00:04:00,
2013-05-19 20:09:00,82.4,64.6,30.06,NE,45,4.6,4.6,55,0.00,CLR,,0.04,WeatherDisplay:10.37,2013-05-20 00:09:00,
2013-05-19 20:14:00,82.2,65.0,30.06,East,90,6.9,6.9,56,0.00,CLR,,0.04,WeatherDisplay:10.37,2013-05-20 00:14:00,
2013-05-19 20:19:00,82.0,65.3,30.06,SSE,158,5.9,5.9,57,0.00,CLR,,0.04,WeatherDisplay:10.37,2013-05-20 00:19:00,
2013-05-19 20:24:00,82.0,65.8,30.06,East,90,5.8,5.8,58,0.00,CLR,,0.04,WeatherDisplay:10.37,2013-05-20 00:24:00,
2013-05-19 20:30:00,82.0,65.8,30.06,East,90,6.9,6.9,58,0.00,CLR,,0.04,WeatherDisplay:10.37,2013-05-20 00:30:00,
2013-05-19 20:35:00,81.7,65.5,30.09,ENE,76,6.0,7.0,58,0.00,RA,,0.04,WeatherDisplay:10.37,2013-05-20 00:35:00,
2013-05-19 20:40:00,82.2,66.4,30.09,East,99,5.0,7.0,59,0.00,RA,,0.04,WeatherDisplay:10.37,2013-05-20 00:40:00,
2013-05-19 20:45:00,82.2,66.0,30.09,NE,45,8.1,8.1,58,0.00,CLR,,0.04,WeatherDisplay:10.37,2013-05-20 00:45:00,
2013-05-19 20:50:00,82.0,65.8,30.06,East,84,5.0,7.0,58,0.00,RA,,0.04,WeatherDisplay:10.37,2013-05-20 00:50:00,
2013-05-19 20:55:00,82.0,65.8,30.06,SSE,158,8.1,8.1,58,0.00,CLR,,0.04,WeatherDisplay:10.37,2013-05-20 00:55:00,
2013-05-19 21:00:00,81.5,65.8,30.06,East,90,6.9,6.9,59,0.00,CLR,,0.04,WeatherDisplay:10.37,2013-05-20 01:00:00,
2013-05-19 21:06:00,81.5,65.8,30.09,SE,135,4.6,4.6,59,0.00,CLR,,0.04,WeatherDisplay:10.37,2013-05-20 01:06:00,
2013-05-19 21:11:00,81.3,65.6,30.09,East,90,8.1,8.1,59,0.00,CLR,,0.04,WeatherDisplay:10.37,2013-05-20 01:11:00,
2013-05-19 21:16:00,81.1,65.5,30.09,ENE,68,5.8,5.8,59,0.00,CLR,,0.04,WeatherDisplay:10.37,2013-05-20 01:16:00,
2013-05-19 21:21:00,81.1,65.9,30.09,SE,135,6.9,6.9,60,0.00,CLR,,0.04,WeatherDisplay:10.37,2013-05-20 01:21:00,
2013-05-19 21:26:00,81.0,65.8,30.09,ENE,68,5.8,5.8,60,0.00,CLR,,0.04,WeatherDisplay:10.37,2013-05-20 01:26:00,
2013-05-19 21:31:00,81.1,65.9,30.09,East,90,8.1,8.1,60,0.00,CLR,,0.04,WeatherDisplay:10.37,2013-05-20 01:31:00,
2013-05-19 21:37:00,81.1,66.4,30.09,East,90,6.2,6.2,61,0.00,CLR,,0.04,WeatherDisplay:10.37,2013-05-20 01:37:00,
2013-05-19 21:42:00,81.1,65.9,30.09,SE,135,4.3,4.3,60,0.00,CLR,,0.04,WeatherDisplay:10.37,2013-05-20 01:42:00,
2013-05-19 21:47:00,81.1,66.4,30.09,SW,225,6.2,6.2,61,0.00,CLR,,0.04,WeatherDisplay:10.37,2013-05-20 01:47:00,
2013-05-19 21:52:00,81.1,66.4,30.09,NNE,22,4.6,4.6,61,0.00,CLR,,0.04,WeatherDisplay:10.37,2013-05-20 01:52:00,
2013-05-19 21:57:00,80.8,66.1,30.09,SE,135,8.1,8.1,61,0.00,CLR,,0.04,WeatherDisplay:10.37,2013-05-20 01:57:00,
2013-05-19 22:02:00,81.3,67.1,30.06,SE,135,4.6,4.6,62,0.00,CLR,,0.04,WeatherDisplay:10.37,2013-05-20 02:02:00,
2013-05-19 22:07:00,81.5,67.2,30.06,South,180,4.6,4.6,62,0.00,CLR,,0.04,WeatherDisplay:10.37,2013-05-20 02:07:00,
2013-05-19 22:12:00,81.5,67.2,30.06,SE,135,6.9,6.9,62,0.00,CLR,,0.04,WeatherDisplay:10.37,2013-05-20 02:12:00,
2013-05-19 22:18:00,81.5,67.2,30.12,East,90,9.2,9.2,62,0.00,CLR,,0.04,WeatherDisplay:10.37,2013-05-20 02:18:00,
2013-05-19 22:23:00,81.3,67.1,30.12,SE,135,5.9,5.9,62,0.00,CLR,,0.04,WeatherDisplay:10.37,2013-05-20 02:23:00,
2013-05-19 22:28:00,81.3,67.1,30.12,East,90,5.9,5.9,62,0.00,CLR,,0.04,WeatherDisplay:10.37,2013-05-20 02:28:00,
2013-05-19 22:33:00,81.0,67.2,30.09,WSW,248,5.8,5.8,63,0.00,CLR,,0.04,WeatherDisplay:10.37,2013-05-20 02:33:00,
2013-05-19 22:38:00,81.0,66.7,30.09,SE,135,4.6,4.6,62,0.00,CLR,,0.04,WeatherDisplay:10.37,2013-05-20 02:38:00,
2013-05-19 22:43:00,81.0,67.2,30.09,ENE,68,4.7,4.7,63,0.00,CLR,,0.04,WeatherDisplay:10.37,2013-05-20 02:43:00,
2013-05-19 22:49:00,80.6,66.8,30.09,ESE,112,5.6,5.6,63,0.00,CLR,,0.04,WeatherDisplay:10.37,2013-05-20 02:49:00,
2013-05-19 22:54:00,80.6,67.3,30.09,East,90,6.0,6.0,64,0.00,CLR,,0.04,WeatherDisplay:10.37,2013-05-20 02:54:00,
2013-05-19 22:59:00,80.8,67.0,30.09,East,90,5.8,5.8,63,0.00,CLR,,0.04,WeatherDisplay:10.37,2013-05-20 02:59:00,
2013-05-19 23:04:00,80.8,67.5,30.12,SSE,158,9.2,9.2,64,0.00,CLR,,0.04,WeatherDisplay:10.37,2013-05-20 03:04:00,
2013-05-19 23:09:00,80.8,67.5,30.12,SE,135,4.0,4.0,64,0.00,CLR,,0.04,WeatherDisplay:10.37,2013-05-20 03:09:00,
2013-05-19 23:14:00,80.4,67.6,30.12,SE,135,6.4,6.4,65,0.00,CLR,,0.04,WeatherDisplay:10.37,2013-05-20 03:14:00,
2013-05-19 23:19:00,80.4,67.6,30.09,NE,45,6.0,6.0,65,0.00,CLR,,0.04,WeatherDisplay:10.37,2013-05-20 03:19:00,
2013-05-19 23:25:00,80.4,67.6,30.09,SSW,202,10.4,10.4,65,0.00,CLR,,0.04,WeatherDisplay:10.37,2013-05-20 03:25:00,
2013-05-19 23:30:00,80.2,67.4,30.09,North,0,5.6,5.6,65,0.00,CLR,,0.04,WeatherDisplay:10.37,2013-05-20 03:30:00,
2013-05-19 23:35:00,80.2,67.8,30.09,ENE,68,4.7,4.7,66,0.00,CLR,,0.04,WeatherDisplay:10.37,2013-05-20 03:35:00,
2013-05-19 23:40:00,80.4,68.0,30.09,NE,45,8.1,8.1,66,0.00,CLR,,0.04,WeatherDisplay:10.37,2013-05-20 03:40:00,
2013-05-19 23:45:00,80.4,68.0,30.09,SW,225,6.9,6.9,66,0.00,CLR,,0.04,WeatherDisplay:10.37,2013-05-20 03:45:00,
2013-05-19 23:50:00,80.4,68.0,30.06,SE,135,5.8,5.8,66,0.00,CLR,,0.04,WeatherDisplay:10.37,2013-05-20 03:50:00,
2013-05-19 23:55:00,80.2,67.8,30.06,West,270,2.3,2.3,66,0.00,CLR,,0.04,WeatherDisplay:10.37,2013-05-20 03:55:00,